Home > Weather > Sarajevo > Past weeks

Flag for Bosnia-Herzegovina Weather for the Past 2 Weeks in Sarajevo, Bosnia-Herzegovina

Now
37 °F

Passing clouds.


Feels Like: 37 °F
Forecast: 33 / 52 °F
Wind: 2 mph from North

Location: Sarajevo / Butmir

Current Time: Feb 13, 2016 at 12:17:23 AM

Latest Report: Feb 12, 2016 at 11:00 PM


Visibility: N/A

Pressure: 29.59 "Hg (27.73 "Hg at 526m altitude)

Humidity: 93%

Dew point: 36 °F

Location of SarajevoLocation

Historic Weather in Sarajevo — Graph

°F

Sarajevo Temperature Yesterday

Maximum temperature yesterday: 52 °F (at 2:00 PM)
Minimum temperature yesterday: 32 °F (at 5:30 AM)
Average temperature yesterday: 42 °F

High & Low Weather Summary for the Past Weeks

 TemperatureHumidityPressure
High64 °F (Feb 1, 2:00 PM)100% (Jan 29, 5:00 AM)30.51 "Hg (Jan 29, 5:00 AM)
Low23 °F (Feb 6, 7:30 AM)45% (Feb 9, 1:00 PM)29.33 "Hg (Feb 10, 9:00 AM)
Average42 °F79%30.09 "Hg
* Reported Jan 28 10:00 PM — Feb 12 10:00 PM, Sarajevo, Weather by CustomWeather, © 2016

Note: Actual official high and low records may vary slightly from our data, if they occured in-between our weather recording intervals... More about our weather records

Advertising

Sarajevo Weather History for the Previous 24 Hours

 ConditionsComfort  
Time TempWeatherWind HumidityBarometerVisibility
10:00 PM
Fri, Feb 12
39 °FPassing clouds.2 mph87%29.62 "HgN/A
9:30 PM39 °FPassing clouds.1 mph87%29.62 "HgN/A
9:00 PM41 °FPassing clouds.1 mph81%29.62 "HgN/A
8:30 PM41 °FPassing clouds.2 mph81%29.65 "HgN/A
8:00 PM43 °FPassing clouds.3 mph76%29.65 "HgN/A
7:30 PM46 °FPassing clouds.1 mph71%29.65 "HgN/A
7:00 PM45 °FPassing clouds.2 mph71%29.65 "HgN/A
6:30 PM46 °FPassing clouds.9 mph71%29.68 "HgN/A
6:00 PM46 °FPassing clouds.10 mph71%29.68 "HgN/A
5:30 PM46 °FLight rain. Passing clouds.12 mph71%29.68 "HgN/A
5:00 PM46 °FLight rain. Partly sunny.10 mph71%29.71 "HgN/A
4:30 PM48 °FLight rain. Scattered clouds.14 mph66%29.71 "HgN/A
4:00 PM48 °FScattered clouds.13 mph62%29.71 "HgN/A
3:30 PM50 °FScattered clouds.12 mph58%29.68 "HgN/A
3:00 PM52 °FScattered clouds.13 mph50%29.71 "HgN/A
2:30 PM50 °FScattered clouds.10 mph54%29.68 "HgN/A
2:00 PM52 °FScattered clouds.5 mph47%29.71 "HgN/A
1:30 PM50 °FScattered clouds.1 mph50%29.71 "HgN/A
1:00 PM50 °FScattered clouds.7 mph50%29.74 "HgN/A
12:30 PM48 °FScattered clouds.2 mph50%29.77 "HgN/A
12:00 PM48 °FScattered clouds.1 mph50%29.77 "HgN/A
11:30 AM46 °FPassing clouds.1 mph50%29.77 "HgN/A
11:00 AM45 °FPassing clouds.3 mph61%29.80 "HgN/A
10:30 AM45 °FSunny.1 mph66%29.80 "Hg10 mi
10:00 AM43 °FSunny.2 mph71%29.80 "Hg10 mi
9:30 AM39 °FSunny.1 mph81%29.80 "Hg10 mi
9:00 AM39 °FSunny.1 mph87%29.83 "Hg10 mi
8:30 AM36 °FSunny.1 mph93%29.83 "Hg10 mi
8:00 AM36 °FSunny.1 mph93%29.83 "Hg10 mi
7:30 AM32 °FSunny.No wind93%29.83 "Hg10 mi
7:00 AM32 °FSunny.1 mph93%29.83 "Hg10 mi
6:30 AM32 °FClear.1 mph93%29.83 "Hg10 mi
6:00 AM34 °FClear.1 mph93%29.83 "Hg10 mi
5:30 AM32 °FPassing clouds.1 mph93%29.83 "HgN/A
5:00 AM34 °FPassing clouds.No wind87%29.83 "HgN/A
4:00 AM36 °FPassing clouds.1 mph87%29.83 "HgN/A
3:00 AM36 °FPassing clouds.2 mph87%29.83 "HgN/A
2:00 AM39 °FPassing clouds.1 mph75%29.83 "HgN/A
1:00 AM39 °FPassing clouds.1 mph75%29.83 "HgN/A
12:00 AM39 °FPassing clouds.No wind75%29.83 "HgN/A
Weather by CustomWeather, © 2016

See weather overviewHow to use our weather pages